Temperature
0 0 0 -0 -0 -0 -0 -0 -0 0 0 0 0 0 1 1 1 1 1 1 1 1 1 1 1 1 1 1 1 2 2 1 1 2 2 2 2 2 2 2 2 2 3
-0 -0 -1 -1 -1 -1 -0 -0 -0 -0 -0 -0 -0 0 0 0 0 0 0 0 0 1 1 1 1 1 1 1 1 1 1 1 1 1 1 1 1 1 1 2 2 2 2
-1 -1 -1 -1 -1 -1 -1 -1 -1 -1 -1 -1 -0 -0 -0 -0 -0 -0 -0 -0 -0 0 0 0 0 0 0 0 0 0 1 1 1 1 1 0 1 1 1 1 1 1 1
-2 -2 -2 -2 -2 -2 -2 -1 -1 -1 -1 -1 -1 -1 -1 -1 -1 -1 -0 -0 -0 -0 -0 -0 -0 -0 -0 -0 -0 -0 -0 0 0 -0 -0 -0 -0 0 0 0 1 1 1
-2 -2 -2 -2 -2 -2 -2 -2 -2 -2 -1 -1 -1 -1 -1 -1 -1 -1 -1 -1 -1 -1 -1 -1 -1 -1 -1 -1 -1 -1 -1 -1 -1 -1 -1 -1 -1 -1 -1 -0 -0 -0 0
-3 -3 -3 -3 -3 -3 -2 -2 -2 -2 -2 -2 -2 -2 -1 -2 -2 -1 -1 -1 -1 -1 -1 -1 -1 -1 -1 -1 -1 -1 -1 -1 -1 -1 -1 -1 -1 -1 -1 -1 -1 -1 -1
-3 -3 -3 -3 -3 -3 -3 -3 -3 -2 -2 -2 -2 -2 -2 -2 -2 -2 -2 -2 -2 -2 -2 -2 -2 -2 -2 -2 -1 -2 -2 -2 -1 -1 -1 -2 -2 -2 -2 -2 -2 -2 -2
-4 -4 -4 -4 -4 -4 -3 -3 -3 -3 -3 -3 -3 -3 -3 -2 -2 -2 -2 -2 -2 -2 -2 -2 -2 -2 -2 -2 -2 -2 -2 -2 -2 -2 -2 -2 -2 -2 -2 -2 -2 -2 -2
-4 -4 -4 -4 -4 -4 -4 -4 -4 -4 -3 -3 -3 -3 -3 -3 -3 -3 -3 -2 -2 -2 -2 -3 -3 -2 -2 -2 -2 -3 -3 -3 -3 -3 -3 -3 -3 -3 -3 -3 -3 -3 -3
-4 -4 -4 -5 -5 -4 -4 -4 -4 -4 -4 -4 -4 -4 -4 -3 -3 -3 -3 -3 -3 -3 -3 -3 -3 -3 -3 -3 -3 -3 -3 -3 -3 -3 -3 -3 -3 -3 -3 -3 -3 -3 -3
-4 -4 -5 -5 -5 -5 -5 -4 -4 -4 -4 -4 -4 -4 -4 -4 -3 -3 -3 -3 -3 -3 -3 -3 -3 -3 -3 -3 -3 -3 -3 -3 -3 -3 -3 -3 -3 -3 -3 -3 -3 -4 -4
-5 -5 -5 -5 -5 -5 -5 -5 -5 -5 -5 -4 -4 -4 -4 -4 -4 -4 -4 -4 -3 -3 -3 -3 -3 -3 -4 -4 -4 -4 -4 -4 -4 -4 -4 -4 -4 -4 -4 -4 -4 -4 -4
-5 -5 -5 -5 -5 -5 -5 -5 -5 -5 -5 -5 -5 -5 -5 -4 -4 -4 -4 -4 -4 -4 -4 -4 -4 -4 -4 -4 -4 -4 -4 -4 -4 -4 -4 -4 -4 -4 -4 -4 -4 -4 -4
-5 -5 -5 -5 -5 -5 -5 -5 -5 -5 -5 -5 -5 -5 -5 -5 -5 -5 -4 -4 -4 -4 -4 -4 -4 -4 -4 -4 -4 -4 -4 -4 -4 -4 -4 -4 -4 -4 -4 -4 -4 -4 -5
-5 -5 -6 -6 -6 -6 -6 -6 -6 -6 -6 -6 -5 -5 -5 -5 -5 -5 -5 -5 -5 -5 -4 -4 -4 -4 -4 -4 -4 -5 -5 -5 -5 -5 -5 -5 -5 -5 -5 -5 -5 -5 -5
-6 -6 -6 -6 -6 -6 -6 -6 -6 -6 -6 -6 -6 -6 -5 -5 -5 -5 -5 -5 -5 -5 -5 -5 -5 -5 -5 -5 -5 -5 -5 -5 -5 -5 -5 -5 -5 -5 -5 -5 -5 -5 -6
-6 -6 -6 -6 -6 -6 -6 -6 -6 -6 -6 -6 -6 -6 -6 -6 -6 -6 -5 -5 -5 -5 -5 -5 -5 -5 -5 -5 -5 -5 -5 -5 -5 -5 -6 -6 -6 -6 -6 -6 -6 -6 -6
-6 -6 -6 -6 -6 -6 -6 -6 -6 -6 -6 -6 -6 -6 -6 -6 -6 -6 -6 -6 -6 -5 -5 -5 -5 -5 -5 -5 -5 -6 -6 -6 -6 -6 -6 -6 -6 -6 -6 -6 -6 -6 -6
-6 -6 -6 -7 -7 -7 -7 -7 -7 -7 -7 -7 -7 -6 -6 -6 -6 -6 -6 -6 -6 -6 -5 -5 -5 -5 -5 -6 -6 -6 -6 -6 -6 -6 -6 -6 -6 -6 -6 -6 -6 -6 -6
-7 -7 -7 -7 -7 -7 -7 -7 -7 -7 -7 -7 -7 -7 -7 -7 -7 -7 -7 -6 -6 -6 -6 -6 -6 -6 -6 -6 -6 -6 -6 -6 -6 -6 -6 -6 -6 -6 -7 -7 -7 -7 -7
-7 -7 -7 -7 -7 -7 -7 -7 -7 -7 -7 -7 -7 -7 -7 -7 -7 -7 -7 -7 -6 -6 -6 -6 -6 -6 -6 -6 -6 -6 -6 -6 -6 -7 -7 -7 -7 -7 -7 -7 -7 -7 -7
-7 -7 -7 -7 -7 -7 -7 -7 -7 -8 -7 -7 -7 -7 -7 -7 -7 -7 -7 -7 -7 -7 -6 -6 -6 -6 -6 -6 -7 -7 -7 -7 -7 -7 -7 -7 -7 -7 -7 -7 -7 -7 -7
-7 -7 -7 -7 -7 -7 -7 -7 -8 -8 -8 -8 -7 -7 -7 -7 -7 -7 -7 -7 -7 -7 -7 -7 -7 -7 -7 -7 -7 -7 -7 -7 -7 -7 -7 -7 -7 -7 -7 -7 -7 -7 -7
-7 -7 -7 -8 -8 -8 -7 -8 -8 -8 -7 -8 -8 -8 -8 -8 -8 -7 -7 -7 -7 -7 -7 -7 -7 -7 -7 -7 -7 -7 -7 -7 -7 -7 -7 -7 -7 -7 -7 -7 -7 -7 -7
-8 -8 -8 -8 -8 -8 -8 -8 -8 -8 -8 -8 -8 -8 -8 -8 -8 -8 -8 -8 -8 -8 -7 -7 -7 -7 -7 -7 -7 -7 -7 -7 -7 -7 -7 -7 -7 -7 -7 -7 -7 -7 -7
-7 -8 -8 -8 -8 -8 -8 -8 -8 -8 -8 -8 -8 -8 -8 -8 -8 -8 -8 -8 -8 -8 -8 -8 -8 -8 -7 -7 -7 -7 -7 -7 -7 -7 -7 -7 -7 -7 -7 -7 -7 -7 -8
Wind_Speed
3 3 3 3 3 3 3 4 4 4 4 3 2 2 2 1 1 1 2 1 1 1 1 1 1 1 1 1 1 0 1 1 2 2 2 1 1 1 3 4 3 3 4
3 3 3 3 3 3 4 4 4 4 4 3 2 2 2 2 2 2 2 2 2 2 2 2 2 1 1 1 1 1 1 2 2 2 2 1 1 1 2 2 3 4 4
3 3 3 3 3 3 4 4 4 3 3 3 2 2 3 2 2 2 2 2 3 3 3 3 2 2 2 2 2 2 2 2 2 3 2 1 1 1 1 2 3 3 4
3 2 3 3 3 4 4 3 3 3 3 2 2 2 2 2 2 2 2 2 2 2 2 3 3 3 3 3 3 3 2 2 2 3 3 1 1 1 0 1 2 2 3
3 3 3 4 3 3 3 3 3 3 2 2 2 2 2 2 2 2 2 2 2 2 2 2 3 3 3 3 2 2 2 2 2 2 3 2 1 0 1 1 2 3 3
3 3 4 3 3 3 3 3 3 2 2 1 1 2 2 3 4 4 2 2 2 2 2 2 3 3 3 4 4 3 2 3 3 3 2 2 2 2 1 1 1 2 2
3 4 3 3 3 3 3 2 2 2 2 2 2 2 2 4 5 4 2 2 2 2 3 2 2 2 2 1 2 2 2 2 3 3 3 3 3 3 2 2 2 2 3
3 4 3 3 3 3 2 2 2 2 2 2 3 3 3 4 5 4 3 1 2 2 3 3 3 2 2 1 1 1 1 1 2 1 3 3 3 3 3 3 2 2 2
4 4 4 3 3 3 3 3 3 2 3 2 2 3 3 4 5 4 3 1 2 2 2 2 2 2 2 1 1 1 0 1 2 1 2 3 3 3 1 1 0 1 2
5 4 4 3 3 3 3 3 2 2 2 2 2 2 2 3 5 4 3 1 1 2 1 2 2 2 3 2 2 2 1 1 1 1 1 1 1 0 1 2 2 2 2
5 4 3 3 3 3 2 2 2 2 2 2 2 2 2 3 4 5 3 0 1 1 1 1 2 2 2 1 1 2 2 1 1 0 1 1 1 0 1 1 1 2 2
4 3 3 3 3 2 2 2 1 1 1 2 2 2 2 3 4 4 4 3 1 1 1 1 2 1 1 0 0 0 1 2 1 0 0 0 1 1 1 1 1 2 2
3 3 3 3 2 2 2 1 1 1 1 2 1 2 2 2 3 4 3 3 3 1 1 1 1 0 1 1 1 2 2 1 1 1 0 1 1 1 1 1 1 2 2
4 3 3 2 2 2 2 2 1 2 2 2 2 2 2 2 2 2 2 1 2 1 1 0 1 2 2 2 2 1 1 0 1 1 1 1 1 1 0 0 1 1 2
3 3 2 2 2 2 2 2 2 3 3 2 2 2 2 3 4 4 2 1 1 1 0 1 1 1 1 1 1 1 1 1 1 0 0 1 1 1 1 1 1 1 1
3 2 2 2 2 2 2 2 3 3 4 4 3 3 3 4 5 4 3 3 2 1 1 1 1 1 1 0 0 0 0 0 0 0 0 1 1 1 1 1 1 1 1
3 3 2 2 2 2 2 1 2 3 3 3 4 4 4 3 4 3 3 2 2 2 2 1 1 1 1 0 0 0 1 0 0 0 0 1 1 1 1 1 2 1 2
3 3 2 2 2 2 2 2 2 2 2 2 3 4 4 3 3 3 2 2 1 2 1 1 1 1 1 1 1 1 0 0 0 1 1 1 1 1 1 1 2 2 2
2 2 2 1 1 2 2 1 1 1 1 2 2 3 4 3 3 4 2 1 1 0 0 0 0 1 1 1 1 1 1 1 0 1 1 1 1 1 1 1 2 3 2
2 2 1 1 1 1 1 1 1 1 1 1 1 2 2 1 1 2 2 1 1 1 0 0 1 0 0 1 1 1 1 1 1 1 1 1 1 1 1 2 2 2 2
1 2 2 1 1 1 1 1 1 1 2 2 2 2 2 0 1 1 1 1 1 1 1 1 1 1 1 1 1 1 1 1 1 1 1 1 1 1 1 1 2 2 2
1 1 1 1 1 1 1 1 1 1 2 2 2 2 2 1 1 1 1 1 1 1 1 1 1 1 1 1 2 2 2 1 1 1 1 1 1 1 1 1 2 2 2
1 1 1 1 1 1 1 1 1 1 2 2 2 1 1 1 1 1 1 1 1 1 2 1 1 1 2 2 3 3 3 3 2 2 2 2 2 2 1 2 2 2 2
1 1 1 1 1 1 1 1 1 2 2 1 2 1 1 1 1 1 1 1 1 1 2 2 2 2 3 2 3 3 4 4 4 4 4 3 2 2 2 2 2 2 2
1 2 2 2 2 2 2 2 2 1 1 2 2 1 1 1 1 1 1 1 1 1 2 2 2 3 3 3 3 3 4 4 4 3 3 3 2 2 2 2 2 2 2
1 2 2 2 2 2 2 2 2 2 2 2 2 1 1 1 1 1 1 1 1 1 2 2 3 3 4 3 4 4 4 4 3 3 3 3 2 2 2 2 2 2 1
Wind_Direction
304 299 302 300 304 305 296 292 291 294 299 293 286 269 256 259 260 249 258 261 265 282 284 270 271 279 279 277 303 259 227 226 237 269 270 278 326 342 343 346 344 350 341
297 298 295 299 309 308 303 302 300 296 299 291 289 275 260 251 246 240 253 260 250 256 261 259 264 268 259 258 250 241 236 238 214 238 252 270 272 314 341 339 342 348 338
307 307 310 308 306 303 304 304 304 300 300 300 285 270 261 255 244 247 240 250 250 250 246 239 245 245 260 253 248 242 244 249 211 199 231 244 277 324 358 346 349 346 342
313 308 306 301 296 298 301 303 301 294 290 294 291 283 271 266 253 252 242 250 251 255 250 242 241 235 241 236 241 238 233 236 208 192 213 230 262 293 13 346 343 349 341
310 309 299 299 301 305 307 306 310 303 300 300 303 308 304 281 258 252 249 234 238 257 262 256 251 253 256 252 243 223 208 215 214 204 218 217 218 267 298 312 324 329 329
305 304 305 309 312 307 305 309 318 323 323 324 310 296 301 294 285 278 268 232 237 242 260 265 261 254 270 268 258 240 221 215 218 215 222 219 234 240 250 270 292 318 312
310 306 307 309 307 307 313 324 320 313 316 312 307 304 293 291 295 290 286 243 235 241 247 256 275 282 294 270 266 273 274 269 251 228 215 231 236 230 234 260 269 278 272
305 304 305 306 305 307 308 310 307 308 304 298 296 291 290 295 306 303 305 285 246 246 239 233 236 258 259 244 214 240 287 307 293 249 221 232 231 231 222 234 252 287 287
297 295 295 292 291 294 292 293 295 301 303 296 292 292 289 295 304 308 318 273 247 258 256 243 237 237 247 238 171 176 250 306 328 305 257 246 246 250 233 137 221 303 302
288 285 286 284 280 278 280 285 295 291 294 301 303 298 287 287 303 312 318 243 237 244 250 251 254 251 253 231 175 174 218 247 264 351 359 345 339 273 247 196 195 218 274
291 288 289 286 282 275 282 288 294 304 310 306 301 302 298 299 305 314 324 196 234 235 234 253 264 269 263 248 205 180 212 209 149 213 328 321 358 5 313 278 218 208 236
293 288 286 283 284 294 288 291 298 299 301 301 305 312 305 299 309 309 320 325 323 218 237 240 250 271 284 229 116 103 85 88 104 102 4 306 291 295 307 306 297 280 257
290 283 280 281 279 283 269 272 284 282 283 289 288 299 303 302 302 317 323 330 339 335 262 261 296 316 23 51 70 64 65 84 118 135 219 298 305 274 290 339 351 352 337
279 276 275 272 277 285 282 270 263 260 266 277 277 286 292 294 287 283 283 300 318 322 322 20 56 55 55 54 69 63 55 100 139 190 248 294 308 305 318 351 345 357 351
278 271 275 267 261 265 271 267 270 257 256 268 263 265 266 273 285 303 300 274 259 232 141 94 74 68 66 49 56 53 51 65 65 38 326 309 324 339 335 342 341 347 324
278 273 264 263 263 267 278 304 306 300 298 299 300 298 272 285 303 311 317 315 318 216 138 141 139 128 151 163 146 47 27 49 36 335 333 320 326 323 332 340 336 326 306
261 262 258 258 259 261 263 267 298 316 320 320 318 316 314 319 325 327 336 349 18 109 134 154 163 174 174 169 201 228 262 294 322 335 336 318 325 330 334 331 332 325 307
267 262 259 247 246 248 248 253 260 278 304 312 319 329 336 334 344 357 14 38 42 62 107 167 185 196 195 199 215 237 258 271 285 298 295 296 306 316 320 316 312 308 308
273 260 258 254 247 246 249 255 262 274 282 295 319 327 343 351 6 15 30 63 81 357 332 275 271 233 207 208 216 224 229 243 266 286 281 287 286 291 298 306 312 319 326
287 285 286 266 253 250 246 253 264 268 281 287 294 297 315 352 5 357 11 17 5 324 312 298 306 299 248 222 212 211 230 246 261 274 279 276 289 290 284 290 295 301 305
289 285 288 283 253 243 240 247 257 259 267 277 283 291 322 315 295 313 334 336 326 321 320 315 309 293 274 245 216 215 230 246 257 261 270 269 269 282 284 286 291 296 303
278 273 273 273 276 266 260 269 267 266 265 276 290 296 319 347 319 314 317 316 317 314 306 288 281 280 265 248 230 221 222 237 251 259 269 272 265 267 267 271 281 291 295
277 276 278 284 278 273 285 287 281 278 276 277 283 291 299 300 302 307 308 309 307 312 298 281 285 292 277 260 243 224 219 231 239 232 237 255 260 262 264 265 268 280 283
273 267 264 270 269 266 268 273 271 274 280 285 286 284 286 289 288 295 302 308 314 308 295 288 284 290 293 277 258 243 237 244 242 228 223 226 242 256 262 265 269 269 272
267 265 261 257 256 258 260 261 263 271 282 287 290 290 296 292 293 300 301 302 302 305 308 303 299 300 296 286 270 261 259 262 254 235 213 216 225 239 248 253 260 268 268
277 266 261 260 255 252 255 261 264 267 274 280 282 280 281 283 288 297 299 301 302 303 305 302 304 304 302 289 275 270 271 265 257 249 223 211 221 237 239 244 248 257 261
Height
1484 1482 1481 1480 1479 1478 1477 1476 1475 1474 1473 1472 1472 1472 1472 1472 1472 1471 1471 1471 1471 1471 1471 1471 1471 1471 1471 1471 1472 1472 1473 1473 1472 1472 1474 1474 1474 1474 1474 1474 1473 1473 1473
1480 1479 1478 1477 1476 1475 1474 1473 1472 1471 1470 1469 1469 1469 1469 1469 1469 1469 1468 1468 1468 1468 1468 1468 1468 1468 1468 1468 1468 1469 1469 1470 1470 1469 1470 1471 1471 1471 1471 1471 1470 1470 1470
1477 1476 1474 1473 1472 1471 1470 1469 1469 1468 1467 1466 1466 1466 1466 1466 1466 1466 1466 1466 1466 1465 1465 1465 1465 1465 1465 1465 1466 1466 1466 1466 1466 1466 1466 1467 1468 1468 1468 1468 1467 1467 1466
1474 1473 1471 1470 1469 1468 1467 1466 1465 1464 1464 1463 1463 1463 1463 1463 1463 1463 1463 1463 1463 1463 1463 1463 1462 1462 1462 1462 1462 1463 1463 1463 1463 1463 1464 1464 1465 1465 1465 1465 1464 1463 1463
1471 1470 1468 1467 1466 1465 1464 1463 1462 1462 1461 1461 1460 1460 1460 1460 1460 1461 1461 1460 1460 1460 1460 1460 1460 1459 1459 1459 1460 1460 1460 1459 1460 1460 1460 1461 1461 1462 1462 1461 1461 1460 1460
1468 1467 1465 1464 1463 1462 1461 1460 1459 1459 1458 1458 1457 1457 1457 1457 1458 1458 1458 1458 1457 1457 1457 1457 1457 1457 1456 1456 1457 1457 1457 1457 1457 1457 1457 1457 1458 1459 1459 1459 1459 1457 1456
1466 1464 1463 1461 1460 1459 1458 1457 1457 1456 1456 1455 1455 1454 1454 1455 1455 1455 1455 1455 1455 1454 1454 1454 1454 1454 1453 1453 1453 1453 1454 1454 1454 1455 1454 1455 1455 1456 1456 1456 1456 1455 1454
1463 1461 1460 1459 1458 1456 1456 1455 1454 1454 1453 1453 1452 1452 1452 1452 1452 1452 1452 1452 1452 1451 1451 1451 1451 1451 1450 1450 1450 1450 1450 1451 1451 1452 1452 1453 1453 1453 1454 1454 1453 1452 1452
1460 1458 1457 1456 1455 1454 1453 1453 1452 1451 1451 1451 1450 1450 1449 1449 1449 1449 1449 1449 1449 1449 1449 1449 1448 1448 1448 1448 1448 1448 1448 1448 1449 1449 1450 1450 1450 1451 1451 1451 1450 1450 1448
1457 1456 1454 1453 1453 1452 1451 1450 1450 1449 1449 1449 1448 1448 1447 1447 1447 1447 1447 1446 1446 1446 1446 1446 1446 1446 1446 1446 1446 1446 1445 1445 1446 1446 1447 1447 1447 1448 1448 1448 1447 1447 1446
1454 1453 1452 1451 1450 1449 1449 1448 1448 1447 1447 1446 1446 1446 1445 1445 1444 1444 1444 1444 1444 1443 1443 1444 1444 1444 1444 1444 1444 1443 1443 1443 1443 1443 1443 1444 1444 1445 1445 1445 1445 1444 1443
1451 1450 1449 1448 1448 1447 1446 1446 1445 1445 1444 1444 1443 1443 1443 1442 1442 1442 1442 1442 1442 1441 1441 1441 1442 1442 1441 1441 1441 1441 1441 1441 1441 1441 1441 1441 1442 1442 1442 1442 1441 1441 1440
1448 1447 1446 1446 1445 1444 1444 1443 1443 1442 1442 1441 1441 1441 1440 1440 1440 1440 1440 1440 1440 1439 1439 1439 1440 1440 1440 1439 1439 1439 1439 1439 1439 1439 1439 1439 1439 1439 1439 1438 1438 1438 1437
1445 1444 1444 1443 1442 1442 1442 1441 1441 1440 1440 1440 1439 1439 1438 1438 1438 1438 1437 1437 1437 1437 1438 1438 1438 1438 1438 1438 1438 1438 1437 1437 1437 1437 1437 1437 1437 1436 1436 1435 1435 1434 1434
1442 1441 1441 1440 1440 1440 1439 1439 1439 1438 1438 1438 1438 1437 1436 1436 1436 1436 1436 1435 1435 1436 1436 1436 1436 1436 1436 1436 1436 1436 1436 1436 1435 1435 1435 1435 1434 1434 1433 1433 1432 1432 1431
1439 1439 1438 1438 1437 1437 1437 1437 1437 1437 1437 1436 1436 1436 1435 1435 1435 1434 1434 1434 1434 1434 1434 1434 1434 1434 1434 1434 1434 1434 1434 1434 1434 1434 1434 1433 1433 1432 1431 1431 1431 1430 1429
1437 1436 1436 1436 1435 1435 1435 1435 1435 1435 1435 1435 1434 1434 1434 1433 1433 1433 1432 1432 1432 1432 1432 1432 1432 1432 1433 1433 1433 1433 1433 1433 1433 1432 1432 1432 1431 1431 1430 1430 1429 1429 1428
1435 1434 1434 1434 1434 1433 1433 1433 1433 1433 1432 1432 1433 1432 1432 1431 1431 1431 1431 1430 1430 1430 1430 1430 1431 1431 1431 1431 1431 1431 1431 1431 1431 1431 1430 1430 1430 1429 1429 1428 1428 1427 1426
1433 1432 1432 1432 1432 1432 1432 1432 1432 1431 1431 1431 1431 1431 1430 1430 1430 1430 1429 1429 1428 1428 1428 1429 1429 1429 1429 1430 1430 1430 1430 1430 1429 1429 1429 1428 1428 1428 1427 1427 1427 1426 1425
1431 1431 1431 1430 1430 1430 1430 1430 1430 1430 1430 1429 1429 1429 1429 1429 1428 1428 1428 1428 1427 1427 1427 1427 1428 1428 1428 1428 1428 1428 1428 1428 1428 1428 1427 1427 1427 1427 1426 1426 1425 1424 1423
1430 1429 1429 1429 1428 1428 1428 1428 1428 1428 1428 1428 1428 1428 1428 1427 1427 1427 1426 1426 1426 1426 1426 1426 1426 1426 1426 1427 1427 1427 1427 1426 1426 1426 1426 1426 1426 1425 1425 1424 1424 1423 1422
1429 1428 1428 1427 1427 1427 1427 1427 1427 1426 1426 1426 1426 1426 1426 1426 1426 1425 1425 1425 1425 1425 1425 1425 1425 1425 1425 1425 1425 1425 1425 1425 1425 1425 1425 1424 1424 1424 1424 1423 1422 1422 1421
1427 1427 1426 1426 1426 1426 1425 1425 1425 1425 1424 1424 1424 1424 1424 1424 1424 1424 1424 1424 1423 1423 1423 1423 1423 1423 1423 1423 1423 1423 1423 1423 1423 1423 1423 1423 1423 1422 1422 1421 1421 1420 1419
1426 1425 1425 1425 1424 1424 1424 1423 1423 1423 1423 1423 1423 1423 1423 1422 1422 1422 1422 1422 1422 1421 1421 1421 1421 1421 1421 1421 1421 1421 1421 1422 1422 1422 1422 1421 1421 1421 1420 1420 1419 1418 1418
1424 1424 1423 1423 1422 1422 1422 1422 1422 1421 1421 1421 1421 1421 1421 1421 1421 1420 1420 1420 1420 1420 1419 1419 1419 1419 1419 1419 1419 1419 1420 1420 1420 1420 1420 1420 1419 1419 1418 1418 1417 1417 1416
1423 1422 1422 1421 1421 1420 1420 1420 1420 1420 1419 1419 1419 1419 1419 1419 1419 1419 1418 1418 1418 1418 1418 1418 1417 1417 1417 1417 1418 1418 1418 1418 1418 1418 1418 1418 1417 1417 1417 1416 1416 1415 1415